This is the latest recevied weather packets stored in our database for station/object KJ4UBX-11. If no packets are shown the sender has not sent any weather packets the latest 10 day(s).
| Time | Temp. | Humidity | Pressure | Rain* | Wind** | Luminosity | Snow |
|---|---|---|---|---|---|---|---|
| 1777788931 | 11.11° C | 87% | 1007.6 hPa | - | - | - | - |
| 1777788349 | 11.11° C | 87% | 1007.7 hPa | - | - | - | - |
| 1777787765 | 11.67° C | 84% | 1007.8 hPa | - | - | - | - |
| 1777787183 | 11.11° C | 85% | 1007.7 hPa | - | - | - | - |
| 1777786599 | 11.11° C | 87% | 1008 hPa | - | - | - | - |
| 1777786017 | 11.11° C | 86% | 1008 hPa | - | - | - | - |
| 1777785434 | 11.11° C | 87% | 1008.1 hPa | - | - | - | - |
| 1777784850 | 11.11° C | 85% | 1008.1 hPa | - | - | - | - |
| 1777784268 | 11.67° C | 86% | 1008.3 hPa | - | - | - | - |
| 1777783685 | 11.67° C | 86% | 1008.4 hPa | - | - | - | - |
| 1777783102 | 11.67° C | 86% | 1008.5 hPa | - | - | - | - |
| 1777782519 | 11.67° C | 86% | 1008.5 hPa | - | - | - | - |
| 1777781936 | 11.67° C | 85% | 1008.6 hPa | - | - | - | - |
| 1777781354 | 11.67° C | 87% | 1008.8 hPa | - | - | - | - |
| 1777780771 | 11.11° C | 88% | 1008.8 hPa | - | - | - | - |
| 1777780189 | 11.67° C | 86% | 1009 hPa | - | - | - | - |
| 1777779606 | 11.67° C | 85% | 1009.2 hPa | - | - | - | - |
| 1777779022 | 11.67° C | 86% | 1009.2 hPa | - | - | - | - |
| 1777778440 | 11.67° C | 85% | 1009.3 hPa | - | - | - | - |
| 1777777857 | 12.22° C | 85% | 1009.3 hPa | - | - | - | - |
| 1777777274 | 12.22° C | 91% | 1009.3 hPa | - | - | - | - |
| 1777776691 | 11.67° C | 86% | 1009.4 hPa | - | - | - | - |
| 1777776108 | 11.67° C | 86% | 1009.6 hPa | - | - | - | - |
| 1777775525 | 11.67° C | 87% | 1009.7 hPa | - | - | - | - |
| 1777774941 | 11.67° C | 87% | 1009.6 hPa | - | - | - | - |
* Rain since midnight (hover to see other rain measurements)
** Current wind speed in m/s (hover to see current wind gust speed)